Location: Ferma
(41.9500°N, 44.5167°E)
Time: 19:48:01
(UTC+00:00)

FENGYUN 1C DEB - Pass Details

Date: 12 August 2022
Orbit: 606 x 930 km, 99.7° (Epoch: 01 October)

Event Time Altitude Azimuth Distance (km) Brightness Sun altitude
Exits shadow 17:39:15 24° 145° (SE) 1,495 ? -15.8°
Maximum altitude 17:42:10 64° 71° (ENE) 858 ? -16.2°
Drops below altitude 10° 17:47:28 10° 351° (N) 2,438 ? -17.0°
Sets 17:49:57 0° 348° (NNW) 3,423 ? -17.4°
